[[{"header":{"parameterUnit":"m.s-1","parameterCategory":1,"la1":30.2991,"la2":30.254,"lo1":-89.0895,"lo2":-89.0444,"dy":0.0017,"dx":0.0017,"nx":28,"ny":28,"refTime":"2025-08-21T03:00:00:Z","depth":0,"parameterNumber":2,"parameterNumberName":"U-component_of_WINDS"},"data":[0,0,0,0,0,0,0,0,0,0,0,0,0,0,0,0,0,0,0,0,0,0,0,0,0,0,0,0,0,0,0,0,0,0,0,0,0,0,0,0,0,0,0,0,0,0,0,0,0,0,0,0,0,0,0,0,0,0,1.4757,1.4757,0,1.4766,1.4766,1.4766,1.477,1.477,1.477,1.477,1.4778,1.4778,1.4778,0,0,0,0,0,0,0,0,0,0,0,0,0,1.4745,1.4745,1.4757,1.4757,1.4758,1.4766,1.4766,1.4766,1.477,1.477,1.477,1.477,1.4778,1.4778,1.4778,0,0,0,0,0,0,0,0,0,0,0,0,0,1.4751,1.4745,1.4757,1.4761,1.4761,1.4766,1.4766,1.4766,1.477,1.477,1.477,1.477,1.4778,1.4778,1.4779,1.478,0,0,1.4779,1.478,0,0,0,0,0,0,0,0,1.4751,1.4752,1.476,1.476,1.4761,1.4767,1.4764,1.4771,1.477,1.4767,1.477,1.477,1.4774,1.4775,1.4777,1.4781,1.4781,1.4779,1.478,1.478,1.478,0,0,0,0,0,0,0,1.4751,1.4752,1.4761,1.476,1.4761,1.4762,1.4763,1.4766,1.477,1.4767,1.4767,1.4768,1.4775,1.4776,1.4777,1.4781,1.4779,1.478,1.478,1.478,1.4789,1.4789,0,0,0,0,0,0,1.475,1.4751,1.476,1.4761,1.4756,1.4762,1.4763,1.4765,1.477,1.4771,1.4768,1.4769,1.4776,1.4776,1.4777,1.478,1.478,1.478,1.478,1.4789,1.4789,1.4789,0,0,0,0,0,0,1.4749,1.475,1.476,1.4756,1.4758,1.4762,1.4764,1.4765,1.4767,1.4771,1.4772,1.4769,1.4776,1.4777,1.478,1.4781,1.478,1.478,1.4789,1.4789,1.4789,1.4786,0,0,0,0,0,0,1.4749,1.475,1.4751,1.4756,1.4758,1.4763,1.4764,1.4765,1.4768,1.4768,1.4772,1.4773,1.4776,1.4779,1.478,1.4781,1.4781,1.4789,1.4789,1.4789,1.4786,1.4786,1.4786,0,0,0,0,0,1.4749,1.4749,1.4751,1.4752,1.4758,1.4763,1.4763,1.4767,1.4768,1.4768,1.4772,1.4773,1.4781,1.478,1.4781,1.4782,1.4789,1.4789,1.4789,1.4787,1.4786,1.4786,0,0,0,0,0,0,1.4742,1.475,1.4752,1.4754,1.4758,1.4763,1.4764,1.4766,1.477,1.477,1.4774,1.4775,1.4778,1.478,1.4779,1.4785,1.4785,1.4785,1.4783,1.4783,1.4783,1.4782,1.4781,0,0,0,0,0,1.4742,1.4745,1.4751,1.4752,1.4754,1.4759,1.4761,1.4763,1.4767,1.4769,1.4772,1.4776,1.4779,1.4781,1.4784,1.4787,1.4789,1.4789,1.4789,1.4789,1.4788,1.4791,1.4792,1.479,1.479,1.479,0,0,1.4739,1.4744,1.4745,1.4751,1.4754,1.4758,1.476,1.4763,1.4766,1.4769,1.4773,1.4776,1.478,1.4784,1.4785,1.4785,1.479,1.4789,1.4789,1.4789,1.4792,1.4792,1.4792,1.479,1.479,1.479,0,0,1.4737,1.474,1.4743,1.4746,1.4752,1.4755,1.4756,1.4762,1.4764,1.4768,1.4771,1.4775,1.478,1.4783,1.4786,1.4788,1.4789,1.4789,1.4788,1.4791,1.4791,1.4791,1.4792,1.4793,1.4789,1.4789,1.4789,0,1.4733,1.4738,1.4743,1.4747,1.475,1.4754,1.4757,1.476,1.4766,1.4768,1.4769,1.4777,1.478,1.4785,1.4786,1.4788,1.4789,1.4788,1.4791,1.4791,1.4791,1.4792,1.4793,1.4789,1.4789,1.4789,1.4789,0,1.4734,1.4738,1.4739,1.4746,1.4749,1.4752,1.4758,1.476,1.4763,1.4767,1.4772,1.4776,1.4781,1.4783,1.4785,1.4789,1.4789,1.479,1.479,1.4791,1.4792,1.4793,1.4789,1.4789,1.4789,1.4789,0,0,1.4726,1.4737,1.4738,1.4742,1.4749,1.4752,1.4756,1.4761,1.4764,1.4769,1.4772,1.4778,1.478,1.4783,1.4786,1.4788,1.479,1.479,1.479,1.479,1.4796,1.4794,1.4795,1.4792,1.4792,1.4792,1.4795,0,1.4725,1.4732,1.4738,1.4743,1.4747,1.4752,1.4756,1.4761,1.4765,1.4769,1.4774,1.4778,1.478,1.4782,1.4785,1.479,1.4792,1.479,1.4796,1.4796,1.4794,1.4795,1.4793,1.4796,1.4796,1.4796,1.4796,0,1.4723,1.4729,1.4735,1.4744,1.4746,1.4748,1.4755,1.4759,1.4766,1.4769,1.4773,1.4777,1.4782,1.4783,1.479,1.4788,1.4792,1.4794,1.4795,1.4795,1.4795,1.4795,1.4797,1.4797,1.4797,1.4796,1.4796,0,1.4718,1.4727,1.4732,1.4735,1.4745,1.4747,1.4751,1.4758,1.4762,1.4768,1.477,1.4776,1.478,1.4785,1.479,1.479,1.4797,1.4798,1.48,1.48,1.48,1.48,1.4802,1.4803,1.4803,1.4803,1.4803,0,1.4715,1.4718,1.4729,1.4732,1.4737,1.4744,1.4748,1.4753,1.4759,1.4763,1.4769,1.4773,1.478,1.4786,1.479,1.4796,1.4797,1.48,1.4801,1.4799,1.4799,1.4801,1.4801,1.4803,1.4803,1.4803,1.4803,0,1.4708,1.4716,1.4722,1.4732,1.4735,1.4737,1.4746,1.475,1.4755,1.4761,1.4762,1.4771,1.4777,1.4784,1.4792,1.4796,1.4801,1.4803,1.4799,1.48,1.4801,1.4801,1.4804,1.4805,1.4805,1.4805,1.4805,0,1.4706,1.4709,1.472,1.4724,1.4728,1.4734,1.4738,1.4746,1.475,1.476,1.4762,1.4769,1.4775,1.4786,1.4793,1.48,1.4801,1.4802,1.4802,1.4801,1.4801,1.4801,1.4802,1.4801,1.4801,1.4801,1.4801,0,1.4701,1.4706,1.4712,1.472,1.4725,1.4731,1.4738,1.4741,1.475,1.4755,1.4762,1.4767,1.4777,1.4784,1.4792,1.4797,1.4801,1.4802,1.4802,1.48,1.4798,1.4799,1.4798,1.4801,1.4801,1.4801,1.4801,1.4801,1.4697,1.47,1.4709,1.4716,1.4723,1.4729,1.4733,1.474,1.4747,1.4755,1.476,1.4767,1.4776,1.4787,1.4792,1.4799,1.48,1.4801,1.4801,1.4801,1.4801,1.4798,1.48,1.48,1.48,1.48,1.48,0,1.4692,1.4699,1.4706,1.4716,1.4722,1.4726,1.4734,1.4739,1.4746,1.4753,1.476,1.4769,1.4777,1.4785,1.4794,1.4797,1.4799,1.4799,1.4798,1.48,1.4799,1.4798,1.4797,1.4797,1.4797,1.4797,1.4797,1.4797,1.4691,1.4697,1.4703,1.4713,1.4719,1.4727,1.4732,1.4738,1.4745,1.4755,1.4762,1.4768,1.4776,1.4785,1.4793,1.4795,1.4798,1.4797,1.48,1.4799,1.48,1.48,1.4798,1.4798,1.4798,1.48,1.48,1.48]},{"header":{"parameterUnit":"m.s-1","parameterCategory":1,"la1":30.2991,"la2":30.254,"lo1":-89.0895,"lo2":-89.0444,"dy":0.0017,"dx":0.0017,"nx":28,"ny":28,"refTime":"2025-08-21T03:00:00:Z","depth":0,"parameterNumber":3,"parameterNumberName":"V-component_of_WINDS"},"data":[0,0,0,0,0,0,0,0,0,0,0,0,0,0,0,0,0,0,0,0,0,0,0,0,0,0,0,0,0,0,0,0,0,0,0,0,0,0,0,0,0,0,0,0,0,0,0,0,0,0,0,0,0,0,0,0,0,0,-1.9511,-1.951,0,-1.9403,-1.9402,-1.9401,-1.9331,-1.9331,-1.933,-1.933,-1.9216,-1.9213,-1.9211,0,0,0,0,0,0,0,0,0,0,0,0,0,-1.9654,-1.9652,-1.9511,-1.951,-1.9509,-1.9404,-1.9402,-1.9401,-1.9331,-1.9331,-1.933,-1.933,-1.9217,-1.9213,-1.921,0,0,0,0,0,0,0,0,0,0,0,0,0,-1.9574,-1.9651,-1.9511,-1.9461,-1.9456,-1.9404,-1.9402,-1.94,-1.9331,-1.9331,-1.933,-1.9329,-1.9218,-1.9214,-1.921,-1.9198,0,0,-1.9198,-1.9196,0,0,0,0,0,0,0,0,-1.9579,-1.9569,-1.947,-1.9465,-1.9458,-1.938,-1.9411,-1.9332,-1.9332,-1.9378,-1.933,-1.9329,-1.9271,-1.9262,-1.9243,-1.9193,-1.9188,-1.9197,-1.9195,-1.9193,-1.9192,0,0,0,0,0,0,0,-1.9584,-1.9573,-1.9468,-1.9469,-1.9462,-1.9443,-1.9431,-1.9396,-1.9329,-1.9374,-1.9369,-1.9357,-1.9267,-1.9247,-1.924,-1.9186,-1.9197,-1.9194,-1.9192,-1.919,-1.9122,-1.9122,0,0,0,0,0,0,-1.9598,-1.9578,-1.9472,-1.9465,-1.9518,-1.9441,-1.9428,-1.9406,-1.933,-1.9317,-1.9358,-1.9355,-1.9254,-1.9245,-1.9236,-1.9218,-1.9193,-1.919,-1.9187,-1.9121,-1.9122,-1.9123,0,0,0,0,0,0,-1.9602,-1.9589,-1.9476,-1.952,-1.9504,-1.944,-1.9416,-1.9404,-1.9384,-1.9317,-1.9305,-1.935,-1.9254,-1.9241,-1.9209,-1.9213,-1.9188,-1.9184,-1.9121,-1.9122,-1.9122,-1.9182,0,0,0,0,0,0,-1.9606,-1.9591,-1.9586,-1.9521,-1.9502,-1.9452,-1.9416,-1.9402,-1.9378,-1.9372,-1.9306,-1.9295,-1.9252,-1.9215,-1.9205,-1.9207,-1.9181,-1.912,-1.9121,-1.9122,-1.9179,-1.9184,-1.9189,0,0,0,0,0,-1.9611,-1.9606,-1.9586,-1.9574,-1.9495,-1.9452,-1.9441,-1.9393,-1.9379,-1.9373,-1.9331,-1.9297,-1.9215,-1.9212,-1.92,-1.9201,-1.9119,-1.9121,-1.9122,-1.9177,-1.9183,-1.9189,0,0,0,0,0,0,-1.9672,-1.9596,-1.9574,-1.9547,-1.9507,-1.944,-1.9432,-1.9402,-1.9363,-1.936,-1.9301,-1.9286,-1.926,-1.9227,-1.9226,-1.9187,-1.9163,-1.9162,-1.9209,-1.9214,-1.9219,-1.9227,-1.9178,0,0,0,0,0,-1.9683,-1.9655,-1.959,-1.9573,-1.9554,-1.9497,-1.9476,-1.9443,-1.9398,-1.938,-1.9335,-1.9292,-1.9256,-1.9233,-1.9197,-1.9174,-1.9159,-1.9169,-1.9174,-1.9179,-1.9178,-1.9165,-1.9169,-1.9127,-1.9127,-1.9127,0,0,-1.9703,-1.9659,-1.9644,-1.9584,-1.9549,-1.9521,-1.9482,-1.9454,-1.9432,-1.9375,-1.9342,-1.9308,-1.9255,-1.9228,-1.9214,-1.92,-1.9187,-1.918,-1.9184,-1.9181,-1.9166,-1.9171,-1.9174,-1.9128,-1.9128,-1.9127,0,0,-1.9727,-1.9691,-1.9673,-1.9639,-1.9587,-1.955,-1.9546,-1.9484,-1.946,-1.9426,-1.9383,-1.9356,-1.9295,-1.926,-1.9235,-1.9248,-1.9216,-1.9238,-1.9264,-1.9251,-1.9255,-1.9257,-1.9262,-1.9265,-1.9238,-1.9238,-1.9238,0,-1.9759,-1.9716,-1.9668,-1.9642,-1.9617,-1.9566,-1.9548,-1.9517,-1.9455,-1.9438,-1.9424,-1.9349,-1.931,-1.9274,-1.9278,-1.9259,-1.9252,-1.9245,-1.9258,-1.9261,-1.9262,-1.9266,-1.9268,-1.9241,-1.9241,-1.924,-1.924,0,-1.9759,-1.973,-1.9721,-1.9665,-1.9639,-1.9617,-1.9565,-1.9544,-1.9514,-1.9478,-1.9445,-1.9397,-1.935,-1.934,-1.9309,-1.93,-1.9293,-1.927,-1.9245,-1.927,-1.9273,-1.9274,-1.9245,-1.9244,-1.9243,-1.9243,0,0,-1.9815,-1.9735,-1.9732,-1.9707,-1.9647,-1.9623,-1.9599,-1.9555,-1.9539,-1.9499,-1.9477,-1.9428,-1.9407,-1.9378,-1.9343,-1.9333,-1.9347,-1.931,-1.9308,-1.9319,-1.9335,-1.9353,-1.9355,-1.9326,-1.9326,-1.9326,-1.9339,0,-1.983,-1.9786,-1.9743,-1.9714,-1.9686,-1.9639,-1.9618,-1.9579,-1.9545,-1.9517,-1.9479,-1.9445,-1.942,-1.9402,-1.939,-1.9348,-1.9349,-1.9347,-1.9305,-1.9304,-1.9319,-1.9357,-1.9375,-1.9389,-1.934,-1.934,-1.934,0,-1.9841,-1.9805,-1.9774,-1.9718,-1.9705,-1.9687,-1.9645,-1.9618,-1.9573,-1.9549,-1.9518,-1.9482,-1.9455,-1.9434,-1.9395,-1.9394,-1.9375,-1.9352,-1.9352,-1.9345,-1.9323,-1.9351,-1.9393,-1.9395,-1.9342,-1.9342,-1.9341,0,-1.9886,-1.9829,-1.9804,-1.9783,-1.9718,-1.9707,-1.9678,-1.9633,-1.961,-1.9572,-1.9557,-1.9516,-1.9494,-1.9463,-1.9417,-1.9406,-1.9383,-1.9358,-1.9362,-1.9363,-1.9358,-1.9359,-1.9397,-1.9347,-1.9347,-1.9347,-1.9347,0,-1.9906,-1.9889,-1.9824,-1.9808,-1.9788,-1.9738,-1.9719,-1.9686,-1.9647,-1.9623,-1.958,-1.9559,-1.9499,-1.9471,-1.9435,-1.9409,-1.9399,-1.9378,-1.9369,-1.9382,-1.9385,-1.9368,-1.9366,-1.9347,-1.9347,-1.9347,-1.9347,0,-1.9952,-1.9908,-1.9877,-1.9818,-1.9803,-1.9791,-1.974,-1.9723,-1.9688,-1.9659,-1.9649,-1.9594,-1.9558,-1.951,-1.9459,-1.9435,-1.9414,-1.9399,-1.943,-1.9424,-1.943,-1.9431,-1.9459,-1.946,-1.941,-1.941,-1.9411,0,-1.9968,-1.9954,-1.9895,-1.9877,-1.9851,-1.9823,-1.98,-1.9751,-1.9729,-1.9678,-1.9667,-1.9629,-1.9596,-1.9542,-1.9496,-1.9457,-1.9441,-1.9454,-1.9435,-1.9449,-1.9441,-1.9443,-1.9441,-1.9458,-1.9459,-1.9459,-1.946,0,-2.0001,-1.998,-1.995,-1.9912,-1.9886,-1.9854,-1.9819,-1.9807,-1.975,-1.9728,-1.9693,-1.9667,-1.9617,-1.958,-1.9536,-1.9506,-1.9473,-1.9467,-1.9465,-1.9478,-1.9497,-1.9487,-1.9442,-1.9466,-1.9465,-1.9465,-1.9464,-1.9464,-2.0032,-2.0018,-1.9975,-1.9943,-1.9912,-1.9881,-1.9863,-1.9826,-1.9797,-1.9753,-1.9726,-1.9692,-1.9648,-1.9586,-1.9558,-1.953,-1.9517,-1.9515,-1.9515,-1.9515,-1.952,-1.9503,-1.9522,-1.9522,-1.9521,-1.9521,-1.9521,0,-2.0063,-2.0033,-2.0004,-1.9958,-1.9933,-1.9908,-1.9868,-1.9849,-1.982,-1.9783,-1.9752,-1.9712,-1.9676,-1.9629,-1.959,-1.9577,-1.9562,-1.9569,-1.9569,-1.9563,-1.9533,-1.9539,-1.9582,-1.9582,-1.9582,-1.9582,-1.9582,-1.9582,-2.0076,-2.0051,-2.0026,-1.9986,-1.9956,-1.9924,-1.9904,-1.9875,-1.9845,-1.9803,-1.9774,-1.9745,-1.9703,-1.9661,-1.9628,-1.9615,-1.9602,-1.9614,-1.9596,-1.957,-1.9564,-1.9559,-1.9564,-1.9612,-1.9612,-1.9627,-1.9628,-1.9628]}]]